BINAR-1

Last updated on Mon Oct 03 2022 00:02:07 GMT+0000 (Coordinated Universal Time)

1 49272U 98067SR 22273.78029111 .16499517 12645-4 25009-3 0 9992 2 49272 51.6113 132.4675 0005461 279.4228 80.6185 16.48270640 56367

Satellite not in orbit